AJI609 KELP-KMCI

Flight info

Callsign AJI609
Flight time 1h 30m
Altitude 41000
Route LATVE3 CME J26 ICT ZOURA WUTNG3
Aircraft MD11/H-SDE1E2E3FGHIJ2J3J4J5M1RWXY/LB1D1

Departure

Time 2026-04-28 02:49
Airport El Paso International Airport (KELP)

Arrival

Time 2026-04-28 04:19
Airport Kansas City International Airport (KMCI)
Time Latitude Longitude Altitude Speed Heading
2026-04-28 02:02 31.79838 -106.38752 3947 ft 0 kts 54°
2026-04-28 02:35 31.79826 -106.38773 3947 ft 4 kts 50°
2026-04-28 02:35 31.79810 -106.38790 3947 ft 4 kts 10°
2026-04-28 02:35 31.79786 -106.38789 3947 ft 4 kts 339°
2026-04-28 02:36 31.79770 -106.38781 3947 ft 1 kts 333°
2026-04-28 02:39 31.79776 -106.38785 3947 ft 2 kts 334°
2026-04-28 02:39 31.79792 -106.38791 3947 ft 4 kts 341°
2026-04-28 02:39 31.79827 -106.38800 3946 ft 6 kts 351°
2026-04-28 02:39 31.79878 -106.38802 3946 ft 8 kts 359°
2026-04-28 02:40 31.79944 -106.38801 3945 ft 11 kts
2026-04-28 02:40 31.80025 -106.38796 3943 ft 13 kts
2026-04-28 02:40 31.80121 -106.38790 3942 ft 15 kts
2026-04-28 02:40 31.80226 -106.38783 3941 ft 16 kts
2026-04-28 02:41 31.80339 -106.38775 3940 ft 17 kts
2026-04-28 02:41 31.80462 -106.38766 3939 ft 18 kts
2026-04-28 02:41 31.80577 -106.38805 3941 ft 17 kts 334°
2026-04-28 02:41 31.80677 -106.38819 3943 ft 13 kts 20°
2026-04-28 02:42 31.80743 -106.38764 3945 ft 11 kts 41°
2026-04-28 02:42 31.80800 -106.38703 3946 ft 11 kts 43°
2026-04-28 02:42 31.80855 -106.38637 3948 ft 11 kts 48°
2026-04-28 02:42 31.80903 -106.38572 3950 ft 10 kts 49°
2026-04-28 02:43 31.80946 -106.38513 3952 ft 10 kts 50°
2026-04-28 02:43 31.81003 -106.38432 3951 ft 16 kts 50°
2026-04-28 02:43 31.81083 -106.38319 3951 ft 19 kts 50°
2026-04-28 02:43 31.81167 -106.38200 3951 ft 19 kts 50°
2026-04-28 02:44 31.81256 -106.38073 3950 ft 20 kts 50°
2026-04-28 02:44 31.81344 -106.37949 3953 ft 20 kts 50°
2026-04-28 02:44 31.81433 -106.37825 3954 ft 20 kts 50°
2026-04-28 02:44 31.81516 -106.37709 3959 ft 17 kts 49°
2026-04-28 02:45 31.81595 -106.37603 3959 ft 18 kts 49°
2026-04-28 02:45 31.81674 -106.37495 3962 ft 17 kts 50°
2026-04-28 02:45 31.81750 -106.37389 3962 ft 17 kts 50°
2026-04-28 02:45 31.81831 -106.37273 3961 ft 19 kts 50°
2026-04-28 02:46 31.81916 -106.37155 3961 ft 19 kts 49°
2026-04-28 02:46 31.82007 -106.37031 3960 ft 20 kts 50°
2026-04-28 02:46 31.82096 -106.36908 3957 ft 18 kts 43°
2026-04-28 02:46 31.82130 -106.36891 3964 ft 0 kts 351°
2026-04-28 02:47 31.82136 -106.36892 3965 ft 2 kts 350°
2026-04-28 02:47 31.82161 -106.36901 3962 ft 4 kts 341°
2026-04-28 02:47 31.82179 -106.36910 3966 ft 2 kts 333°
2026-04-28 02:47 31.82205 -106.36929 3966 ft 8 kts 325°
2026-04-28 02:48 31.82239 -106.36972 3966 ft 7 kts 306°
2026-04-28 02:48 31.82252 -106.37017 3966 ft 5 kts 276°
2026-04-28 02:48 31.82241 -106.37070 3965 ft 26 kts 248°
2026-04-28 02:48 31.81940 -106.37520 3963 ft 119 kts 229°
2026-04-28 02:49 31.81222 -106.38499 4076 ft 185 kts 232°
2026-04-28 02:49 31.80365 -106.39612 5285 ft 165 kts 232°
2026-04-28 02:49 31.79537 -106.40620 6190 ft 185 kts 218°
2026-04-28 02:49 31.78232 -106.40997 6784 ft 211 kts 175°
2026-04-28 02:50 31.76866 -106.40208 7484 ft 230 kts 140°
2026-04-28 02:50 31.75838 -106.38701 7955 ft 252 kts 127°
2026-04-28 02:50 31.74843 -106.36857 8031 ft 278 kts 123°
2026-04-28 02:50 31.73785 -106.34826 8489 ft 297 kts 123°
2026-04-28 02:51 31.72776 -106.32675 9516 ft 304 kts 115°
2026-04-28 02:51 31.72242 -106.30234 10386 ft 319 kts 98°
2026-04-28 02:51 31.72139 -106.27485 10531 ft 358 kts 90°
2026-04-28 02:51 31.72244 -106.24449 10934 ft 382 kts 86°
2026-04-28 02:52 31.72682 -106.21322 11933 ft 390 kts 75°
2026-04-28 02:52 31.73805 -106.18388 12811 ft 399 kts 54°
2026-04-28 02:52 31.75616 -106.15888 13687 ft 404 kts 42°
2026-04-28 02:52 31.77681 -106.13679 14533 ft 411 kts 38°
2026-04-28 02:53 31.79898 -106.11478 15363 ft 420 kts 37°
2026-04-28 02:53 31.82149 -106.09249 16192 ft 428 kts 37°
2026-04-28 02:53 31.84351 -106.06819 16952 ft 439 kts 43°
2026-04-28 02:53 31.86427 -106.04106 17727 ft 449 kts 47°
2026-04-28 02:54 31.88428 -106.01256 18499 ft 457 kts 49°
2026-04-28 02:54 31.90414 -105.98324 19262 ft 464 kts 50°
2026-04-28 02:54 31.92438 -105.95314 20008 ft 470 kts 49°
2026-04-28 02:54 31.94523 -105.92287 20776 ft 476 kts 47°
2026-04-28 02:55 31.96667 -105.89352 21474 ft 481 kts 46°
2026-04-28 02:55 31.98916 -105.86386 22165 ft 487 kts 45°
2026-04-28 02:55 32.01207 -105.83410 22843 ft 493 kts 45°
2026-04-28 02:55 32.03518 -105.80409 23502 ft 498 kts 45°
2026-04-28 02:56 32.05970 -105.77461 24136 ft 502 kts 40°
2026-04-28 02:56 32.08550 -105.74724 24749 ft 506 kts 37°
2026-04-28 02:56 32.11259 -105.72033 25367 ft 510 kts 36°
2026-04-28 02:56 32.14019 -105.69356 25974 ft 515 kts 35°
2026-04-28 02:57 32.16803 -105.66658 26584 ft 519 kts 35°
2026-04-28 02:57 32.19597 -105.63928 27166 ft 523 kts 35°
2026-04-28 02:57 32.22368 -105.61197 27725 ft 527 kts 35°
2026-04-28 02:57 32.25202 -105.58385 28280 ft 532 kts 35°
2026-04-28 02:58 32.28028 -105.55568 28811 ft 537 kts 35°
2026-04-28 02:58 32.30898 -105.52699 29339 ft 541 kts 35°
2026-04-28 02:58 32.33784 -105.49811 29824 ft 545 kts 35°
2026-04-28 02:58 32.36706 -105.46887 30321 ft 549 kts 35°
2026-04-28 02:59 32.39603 -105.43989 30783 ft 553 kts 35°
2026-04-28 02:59 32.42585 -105.41034 31396 ft 553 kts 34°
2026-04-28 02:59 32.45521 -105.38175 32010 ft 552 kts 33°
2026-04-28 02:59 32.48383 -105.35416 32572 ft 553 kts 33°
2026-04-28 03:00 32.51320 -105.32599 33150 ft 552 kts 33°
2026-04-28 03:00 32.54332 -105.29714 33757 ft 551 kts 33°
2026-04-28 03:00 32.57316 -105.26851 34300 ft 551 kts 33°
2026-04-28 03:00 32.60308 -105.23974 34804 ft 551 kts 32°
2026-04-28 03:01 32.63277 -105.21114 35317 ft 550 kts 32°
2026-04-28 03:01 32.66236 -105.18259 35796 ft 550 kts 32°
2026-04-28 03:01 32.69241 -105.15432 36221 ft 548 kts 29°
2026-04-28 03:01 32.72302 -105.12766 36696 ft 545 kts 27°
2026-04-28 03:02 32.75360 -105.10229 37091 ft 543 kts 26°
2026-04-28 03:02 32.78478 -105.07696 37579 ft 540 kts 25°
2026-04-28 03:02 32.81583 -105.05182 38036 ft 538 kts 25°
2026-04-28 03:02 32.84661 -105.02677 38464 ft 537 kts 25°
2026-04-28 03:03 32.87740 -105.00158 38817 ft 537 kts 25°
2026-04-28 03:03 32.90804 -104.97636 39166 ft 537 kts 25°
2026-04-28 03:03 32.92883 -104.95920 39369 ft 537 kts 25°
2026-04-28 03:03 32.95913 -104.93415 39689 ft 536 kts 25°
2026-04-28 03:04 32.99020 -104.90845 39997 ft 537 kts 25°
2026-04-28 03:04 33.02074 -104.88313 40281 ft 537 kts 26°
2026-04-28 03:04 33.05110 -104.85791 40559 ft 536 kts 26°
2026-04-28 03:04 33.08170 -104.83248 40823 ft 536 kts 26°
2026-04-28 03:05 33.11278 -104.80665 40949 ft 540 kts 26°
2026-04-28 03:05 33.17489 -104.75504 40966 ft 544 kts 26°
2026-04-28 03:06 33.23457 -104.70520 40962 ft 541 kts 26°
2026-04-28 03:06 33.29633 -104.65360 40954 ft 541 kts 26°
2026-04-28 03:07 33.35752 -104.60102 40939 ft 548 kts 33°
2026-04-28 03:07 33.40990 -104.53415 40947 ft 559 kts 46°
2026-04-28 03:08 33.45714 -104.45981 40944 ft 561 kts 48°
2026-04-28 03:08 33.50467 -104.38565 40946 ft 561 kts 47°
2026-04-28 03:09 33.55316 -104.31251 40942 ft 560 kts 46°
2026-04-28 03:09 33.60199 -104.23960 40943 ft 560 kts 46°
2026-04-28 03:10 33.65063 -104.16675 40945 ft 560 kts 46°
2026-04-28 03:10 33.69934 -104.09349 40945 ft 560 kts 46°
2026-04-28 03:11 33.74786 -104.02032 40943 ft 559 kts 46°
2026-04-28 03:11 33.79643 -103.94694 40952 ft 562 kts 46°
2026-04-28 03:12 33.84487 -103.87364 40954 ft 564 kts 46°
2026-04-28 03:12 33.89388 -103.79917 40952 ft 564 kts 47°
2026-04-28 03:13 33.94207 -103.72546 40951 ft 564 kts 47°
2026-04-28 03:13 33.99065 -103.65126 40955 ft 564 kts 47°
2026-04-28 03:14 34.03927 -103.57705 40953 ft 563 kts 47°
2026-04-28 03:14 34.08780 -103.50284 40953 ft 563 kts 47°
2026-04-28 03:15 34.13631 -103.42852 40953 ft 563 kts 47°
2026-04-28 03:15 34.18474 -103.35412 40955 ft 563 kts 47°
2026-04-28 03:16 34.23312 -103.27966 40957 ft 563 kts 47°
2026-04-28 03:16 34.28143 -103.20516 40963 ft 563 kts 47°
2026-04-28 03:17 34.32970 -103.13055 40961 ft 563 kts 47°
2026-04-28 03:17 34.40157 -103.01910 40978 ft 561 kts 47°
2026-04-28 03:18 34.44971 -102.94387 40978 ft 562 kts 47°
2026-04-28 03:18 34.49754 -102.86917 40980 ft 562 kts 47°
2026-04-28 03:19 34.54550 -102.79432 40979 ft 561 kts 47°
2026-04-28 03:19 34.59316 -102.71983 40971 ft 561 kts 47°
2026-04-28 03:20 34.64091 -102.64503 40971 ft 560 kts 47°
2026-04-28 03:20 34.68856 -102.57022 40971 ft 560 kts 47°
2026-04-28 03:21 34.73619 -102.49529 40971 ft 560 kts 47°
2026-04-28 03:21 34.78375 -102.42030 40972 ft 560 kts 47°
2026-04-28 03:22 34.83125 -102.34523 40967 ft 560 kts 47°
2026-04-28 03:22 34.87883 -102.26991 40973 ft 560 kts 47°
2026-04-28 03:23 34.92615 -102.19461 40970 ft 560 kts 48°
2026-04-28 03:23 34.97335 -102.11909 40970 ft 560 kts 48°
2026-04-28 03:24 35.02075 -102.04340 40972 ft 560 kts 48°
2026-04-28 03:24 35.06803 -101.96789 40962 ft 559 kts 48°
2026-04-28 03:25 35.11518 -101.89243 40961 ft 557 kts 48°
2026-04-28 03:25 35.16216 -101.81710 40962 ft 557 kts 48°
2026-04-28 03:26 35.20913 -101.74160 40964 ft 557 kts 48°
2026-04-28 03:26 35.25604 -101.66607 40962 ft 556 kts 48°
2026-04-28 03:27 35.30249 -101.59149 40960 ft 556 kts 48°
2026-04-28 03:27 35.34959 -101.51595 40960 ft 556 kts 48°
2026-04-28 03:28 35.39657 -101.44051 40964 ft 556 kts 48°
2026-04-28 03:28 35.44350 -101.36494 40967 ft 556 kts 48°
2026-04-28 03:29 35.49033 -101.28938 40972 ft 556 kts 48°
2026-04-28 03:29 35.53723 -101.21352 40973 ft 556 kts 48°
2026-04-28 03:30 35.58385 -101.13794 40978 ft 555 kts 48°
2026-04-28 03:30 35.63054 -101.06212 40987 ft 555 kts 48°
2026-04-28 03:31 35.67696 -100.98655 40991 ft 555 kts 48°
2026-04-28 03:31 35.72368 -100.91031 40987 ft 556 kts 49°
2026-04-28 03:32 35.76992 -100.83432 40981 ft 556 kts 49°
2026-04-28 03:32 35.81629 -100.75794 40973 ft 555 kts 49°
2026-04-28 03:33 35.86240 -100.68213 40972 ft 555 kts 49°
2026-04-28 03:33 35.90861 -100.60610 40972 ft 556 kts 49°
2026-04-28 03:34 35.95509 -100.52945 40962 ft 555 kts 49°
2026-04-28 03:34 36.00119 -100.45324 40964 ft 555 kts 49°
2026-04-28 03:35 36.04729 -100.37684 40959 ft 555 kts 49°
2026-04-28 03:35 36.09320 -100.30061 40963 ft 554 kts 49°
2026-04-28 03:36 36.13950 -100.22355 40965 ft 555 kts 49°
2026-04-28 03:36 36.18540 -100.14700 40961 ft 555 kts 49°
2026-04-28 03:37 36.23147 -100.06993 40961 ft 555 kts 49°
2026-04-28 03:37 36.27718 -99.99283 40962 ft 555 kts 49°
2026-04-28 03:38 36.32277 -99.91595 40964 ft 555 kts 49°
2026-04-28 03:38 36.36940 -99.83910 40963 ft 554 kts 47°
2026-04-28 03:39 36.41664 -99.76390 40973 ft 553 kts 47°
2026-04-28 03:39 36.46395 -99.68883 40977 ft 553 kts 47°
2026-04-28 03:40 36.51148 -99.61296 40994 ft 554 kts 47°
2026-04-28 03:40 36.55758 -99.53905 40998 ft 553 kts 47°
2026-04-28 03:41 36.60439 -99.46382 41000 ft 553 kts 47°
2026-04-28 03:41 36.65134 -99.38822 41005 ft 553 kts 48°
2026-04-28 03:42 36.69094 -99.32431 40999 ft 553 kts 48°
2026-04-28 03:42 36.73777 -99.24860 40998 ft 553 kts 48°
2026-04-28 03:43 36.78481 -99.17237 40992 ft 553 kts 48°
2026-04-28 03:43 36.83161 -99.09636 40990 ft 553 kts 48°
2026-04-28 03:44 36.87841 -99.01982 40981 ft 553 kts 48°
2026-04-28 03:44 36.92483 -98.94365 40981 ft 553 kts 48°
2026-04-28 03:45 36.97162 -98.86702 40981 ft 553 kts 48°
2026-04-28 03:45 37.01812 -98.79082 40980 ft 553 kts 48°
2026-04-28 03:46 37.06474 -98.71427 40982 ft 553 kts 48°
2026-04-28 03:46 37.11132 -98.63758 40981 ft 553 kts 48°
2026-04-28 03:47 37.15779 -98.56087 40981 ft 552 kts 49°
2026-04-28 03:47 37.20434 -98.48388 40980 ft 553 kts 49°
2026-04-28 03:48 37.25082 -98.40682 40980 ft 553 kts 49°
2026-04-28 03:48 37.29695 -98.33015 40980 ft 553 kts 49°
2026-04-28 03:49 37.34330 -98.25294 40988 ft 553 kts 49°
2026-04-28 03:49 37.38964 -98.17512 40988 ft 553 kts 49°
2026-04-28 03:50 37.43564 -98.09776 40989 ft 553 kts 49°
2026-04-28 03:50 37.48171 -98.02039 40998 ft 553 kts 49°
2026-04-28 03:51 37.52782 -97.94290 41001 ft 553 kts 49°
2026-04-28 03:51 37.57378 -97.86547 40999 ft 552 kts 49°
2026-04-28 03:52 37.61974 -97.78784 41004 ft 553 kts 49°
2026-04-28 03:52 37.66589 -97.70970 41010 ft 553 kts 49°
2026-04-28 03:53 37.71159 -97.63213 41009 ft 553 kts 49°
2026-04-28 03:53 37.75762 -97.55303 41003 ft 554 kts 53°
2026-04-28 03:54 37.79530 -97.46737 41018 ft 557 kts 62°
2026-04-28 03:54 37.82800 -97.37789 41019 ft 558 kts 63°
2026-04-28 03:55 37.86050 -97.28922 40907 ft 558 kts 63°
2026-04-28 03:55 37.87708 -97.24498 40511 ft 549 kts 62°
2026-04-28 03:55 37.89359 -97.20132 40002 ft 545 kts 62°
2026-04-28 03:56 37.91000 -97.15809 39424 ft 543 kts 62°
2026-04-28 03:56 37.92622 -97.11541 38877 ft 541 kts 62°
2026-04-28 03:56 37.94261 -97.07218 38321 ft 542 kts 62°
2026-04-28 03:56 37.95893 -97.02899 37771 ft 541 kts 62°
2026-04-28 03:57 37.97505 -96.98620 37224 ft 540 kts 62°
2026-04-28 03:57 37.99124 -96.94319 36679 ft 540 kts 62°
2026-04-28 03:57 38.00741 -96.90017 36124 ft 539 kts 62°
2026-04-28 03:57 38.02344 -96.85746 35577 ft 538 kts 62°
2026-04-28 03:58 38.03959 -96.81437 35020 ft 540 kts 62°
2026-04-28 03:58 38.05583 -96.77097 34447 ft 544 kts 62°
2026-04-28 03:58 38.07211 -96.72738 33888 ft 548 kts 62°
2026-04-28 03:58 38.08834 -96.68388 33320 ft 549 kts 62°
2026-04-28 03:59 38.10479 -96.63977 32747 ft 549 kts 62°
2026-04-28 03:59 38.12112 -96.59584 32179 ft 549 kts 63°
2026-04-28 03:59 38.13740 -96.55164 31607 ft 550 kts 63°
2026-04-28 03:59 38.15344 -96.50794 31039 ft 550 kts 63°
2026-04-28 04:00 38.16974 -96.46355 30465 ft 551 kts 63°
2026-04-28 04:00 38.18598 -96.41942 29886 ft 552 kts 63°
2026-04-28 04:00 38.20217 -96.37548 29331 ft 553 kts 63°
2026-04-28 04:00 38.21853 -96.33110 28750 ft 553 kts 63°
2026-04-28 04:01 38.23487 -96.28673 28179 ft 553 kts 63°
2026-04-28 04:01 38.25112 -96.24257 27597 ft 550 kts 63°
2026-04-28 04:01 38.26729 -96.19856 27006 ft 545 kts 63°
2026-04-28 04:01 38.28414 -96.15574 26409 ft 538 kts 56°
2026-04-28 04:02 38.30534 -96.11687 25712 ft 527 kts 47°
2026-04-28 04:02 38.32906 -96.08204 25016 ft 517 kts 42°
2026-04-28 04:02 38.35382 -96.04907 24326 ft 510 kts 40°
2026-04-28 04:02 38.37844 -96.01703 23652 ft 503 kts 40°
2026-04-28 04:03 38.40271 -95.98507 22991 ft 497 kts 41°
2026-04-28 04:03 38.42631 -95.95331 22336 ft 491 kts 42°
2026-04-28 04:03 38.44954 -95.92148 21681 ft 485 kts 43°
2026-04-28 04:03 38.47237 -95.88983 21041 ft 479 kts 43°
2026-04-28 04:04 38.49472 -95.85861 20408 ft 473 kts 43°
2026-04-28 04:04 38.51670 -95.82783 19784 ft 468 kts 43°
2026-04-28 04:04 38.53850 -95.79730 19169 ft 461 kts 43°
2026-04-28 04:04 38.55983 -95.76739 18565 ft 460 kts 44°
2026-04-28 04:05 38.58114 -95.73751 17959 ft 443 kts 44°
2026-04-28 04:05 38.60139 -95.70904 17376 ft 425 kts 44°
2026-04-28 04:05 38.62104 -95.68138 16813 ft 417 kts 43°
2026-04-28 04:05 38.64043 -95.65418 16260 ft 412 kts 44°
2026-04-28 04:06 38.65968 -95.62717 15714 ft 407 kts 44°
2026-04-28 04:06 38.67868 -95.60049 15171 ft 404 kts 44°
2026-04-28 04:06 38.69753 -95.57397 14643 ft 400 kts 44°
2026-04-28 04:06 38.71619 -95.54768 14115 ft 397 kts 44°
2026-04-28 04:07 38.73459 -95.52178 13604 ft 408 kts 44°
2026-04-28 04:07 38.75389 -95.49462 13165 ft 411 kts 44°
2026-04-28 04:07 38.77311 -95.46747 12792 ft 410 kts 44°
2026-04-28 04:07 38.79255 -95.43992 12409 ft 409 kts 44°
2026-04-28 04:08 38.81152 -95.41298 12098 ft 406 kts 44°
2026-04-28 04:08 38.83043 -95.38616 12027 ft 405 kts 44°
2026-04-28 04:08 38.84939 -95.35935 11959 ft 405 kts 44°
2026-04-28 04:08 38.86841 -95.33254 11488 ft 405 kts 44°
2026-04-28 04:09 38.88718 -95.30605 11012 ft 399 kts 44°
2026-04-28 04:09 38.90574 -95.27971 10804 ft 390 kts 44°
2026-04-28 04:09 38.92325 -95.25473 10675 ft 362 kts 44°
2026-04-28 04:09 38.93928 -95.23180 10555 ft 339 kts 44°
2026-04-28 04:10 38.95474 -95.20977 10413 ft 318 kts 44°
2026-04-28 04:10 38.96960 -95.18866 10283 ft 317 kts 43°
2026-04-28 04:10 38.98322 -95.16631 9970 ft 320 kts 56°
2026-04-28 04:10 38.99355 -95.14090 9457 ft 320 kts 63°
2026-04-28 04:11 38.99960 -95.12331 9127 ft 318 kts 64°
2026-04-28 04:11 39.00810 -95.09719 8630 ft 314 kts 65°
2026-04-28 04:11 39.01637 -95.07134 8164 ft 310 kts 65°
2026-04-28 04:11 39.02458 -95.04587 7706 ft 306 kts 64°
2026-04-28 04:12 39.03260 -95.02104 7282 ft 303 kts 64°
2026-04-28 04:12 39.04063 -94.99627 6901 ft 299 kts 64°
2026-04-28 04:12 39.04862 -94.97174 6489 ft 297 kts 64°
2026-04-28 04:12 39.05654 -94.94736 6086 ft 294 kts 64°
2026-04-28 04:13 39.06438 -94.92320 5718 ft 289 kts 63°
2026-04-28 04:13 39.07194 -94.89976 5520 ft 275 kts 64°
2026-04-28 04:13 39.07886 -94.87821 5364 ft 248 kts 63°
2026-04-28 04:13 39.08527 -94.85831 5229 ft 233 kts 63°
2026-04-28 04:14 39.09148 -94.83941 5095 ft 226 kts 59°
2026-04-28 04:14 39.10092 -94.82423 4942 ft 210 kts 30°
2026-04-28 04:14 39.11304 -94.81403 4580 ft 205 kts 24°
2026-04-28 04:14 39.12472 -94.80516 4171 ft 191 kts 22°
2026-04-28 04:15 39.13601 -94.79673 3808 ft 178 kts 22°
2026-04-28 04:15 39.14644 -94.78902 3525 ft 171 kts 21°
2026-04-28 04:15 39.16706 -94.77405 3098 ft 168 kts 22°
2026-04-28 04:16 39.17722 -94.76670 3045 ft 168 kts 19°
2026-04-28 04:16 39.18794 -94.76170 2958 ft 160 kts
2026-04-28 04:16 39.19850 -94.75760 2918 ft 157 kts
2026-04-28 04:16 39.20906 -94.75417 2726 ft 155 kts
2026-04-28 04:17 39.21951 -94.75119 2518 ft 151 kts
2026-04-28 04:17 39.22944 -94.74826 2282 ft 143 kts
2026-04-28 04:17 39.23904 -94.74549 2125 ft 142 kts
2026-04-28 04:17 39.24871 -94.74255 1971 ft 144 kts
2026-04-28 04:18 39.25820 -94.73972 1773 ft 139 kts
2026-04-28 04:18 39.26760 -94.73695 1558 ft 139 kts
2026-04-28 04:18 39.27706 -94.73414 1398 ft 139 kts
2026-04-28 04:18 39.28625 -94.73149 1212 ft 136 kts
2026-04-28 04:19 39.29559 -94.72880 1030 ft 133 kts 10°
2026-04-28 04:19 39.30305 -94.72657 1019 ft 86 kts 13°
2026-04-28 04:19 39.30656 -94.72465 1013 ft 23 kts 52°
2026-04-28 04:19 39.30665 -94.72416 1014 ft 1 kts 113°
2026-04-28 04:20 39.30639 -94.72391 1014 ft 14 kts 159°
2026-04-28 04:20 39.30540 -94.72412 1015 ft 14 kts 196°
2026-04-28 04:20 39.30448 -94.72447 1017 ft 13 kts 195°
2026-04-28 04:20 39.30360 -94.72472 1018 ft 12 kts 185°
2026-04-28 04:21 39.30290 -94.72446 1019 ft 9 kts 135°
2026-04-28 04:21 39.30262 -94.72365 1019 ft 11 kts 107°
2026-04-28 04:21 39.30239 -94.72265 1019 ft 13 kts 105°
2026-04-28 04:21 39.30209 -94.72154 1019 ft 13 kts 125°
2026-04-28 04:22 39.30130 -94.72096 1020 ft 14 kts 156°
2026-04-28 04:22 39.30056 -94.72022 1021 ft 14 kts 127°
2026-04-28 04:22 39.30026 -94.71970 1021 ft 0 kts 128°